JA3VQW-13 Hirakata JP current weather conditions

sailwx.info

Wind from 270

Air temperature 37.8° C
Dewpoint 8.5° C

Last reported at 2014-Jul-28 07:44 UTC.
Time now 2014-Jul-28 08:28 UTC

Location: N 34°48' E 135°40'.
View on Google Maps.

See reports from other nearby stations

  
Tides and Currents Weather Stations Pressure Air Temp Water Temp Dewpoint Dewpoint Depression Visibility Wind Speed Wind Dir Waves Ship Positions
date/time (UTC)wind fromknots sea level pressurealtimeterstation pressurevisibilityair tempwater tempwave heightnotes
2014-Jul-28 07:44 270 37.8
2014-Jul-28 07:29 270 37.2
2014-Jul-28 07:16 293 1 gusting 1 36.1
2014-Jul-28 06:59 135 35.6
2014-Jul-28 06:45 292 36.1
2014-Jul-28 06:31 270 35.6
2014-Jul-28 06:29 270 35.6
2014-Jul-28 05:59 270 36.7
2014-Jul-28 05:45 270 36.7
2014-Jul-28 05:29 292 35.0
2014-Jul-28 05:15 112 35.0
2014-Jul-28 04:59 270 35.6
2014-Jul-28 04:29 090 35.0
2014-Jul-28 04:00 273 34.4
2014-Jul-28 03:45 270 33.3
2014-Jul-28 03:29 292 30.6
2014-Jul-28 03:16 315 26.7
2014-Jul-28 02:59 315 26.7
2014-Jul-28 02:29 315 26.7
2014-Jul-28 01:59 315 26.7
2014-Jul-28 01:29 315 26.7
2014-Jul-28 01:06 315 26.7
2014-Jul-28 00:36 315 26.7
2014-Jul-28 00:23 315 26.7
2014-Jul-28 00:08 315 26.7
2014-Jul-28 00:06 315 26.7
2014-Jul-27 23:38 315 26.7
2014-Jul-27 23:36 315 26.7
2014-Jul-27 23:08 315 26.7
2014-Jul-27 23:06 315 26.7
2014-Jul-27 22:53 315 26.7
2014-Jul-27 22:38 315 26.7
2014-Jul-27 22:36 315 26.7
2014-Jul-27 22:23 315 26.7
2014-Jul-27 22:06 315 26.7
2014-Jul-27 21:53 315 26.7
2014-Jul-27 21:36 315 26.7
2014-Jul-27 21:23 315 26.7
2014-Jul-27 21:08 315 26.7
2014-Jul-27 21:06 315 26.7
2014-Jul-27 20:53 315 26.7
2014-Jul-27 20:38 315 26.7
2014-Jul-27 20:36 315 26.7
2014-Jul-27 20:23 315 26.7
2014-Jul-27 20:08 315 26.7
2014-Jul-27 20:06 315 26.7
2014-Jul-27 19:53 315 26.7
2014-Jul-27 19:36 315 26.7
2014-Jul-27 19:23 315 26.7
2014-Jul-27 19:06 315 26.7
2014-Jul-27 18:53 315 26.7
2014-Jul-27 18:36 315 26.7
2014-Jul-27 18:23 315 26.7
2014-Jul-27 18:08 315 26.7
2014-Jul-27 18:06 315 26.7
2014-Jul-27 17:53 315 26.7
2014-Jul-27 17:36 315 26.7
2014-Jul-27 17:23 315 26.7
2014-Jul-27 17:06 315 26.7
2014-Jul-27 16:36 315 26.7
2014-Jul-27 16:23 315 26.7
2014-Jul-27 16:08 315 26.7
2014-Jul-27 16:06 315 26.7
2014-Jul-27 15:53 315 26.7
2014-Jul-27 15:38 315 26.7
2014-Jul-27 15:36 315 26.7
2014-Jul-27 15:23 315 26.7
2014-Jul-27 15:08 315 26.7
2014-Jul-27 15:06 315 26.7
2014-Jul-27 14:53 315 26.7
2014-Jul-27 14:36 315 26.7
2014-Jul-27 14:23 315 26.7
2014-Jul-27 14:08 315 26.7
2014-Jul-27 14:06 315 26.7
2014-Jul-27 13:36 315 26.7
2014-Jul-27 13:23 315 26.7
2014-Jul-27 13:06 315 26.7
2014-Jul-27 12:38 315 26.7
2014-Jul-27 12:36 315 26.7
2014-Jul-27 12:23 315 26.7
2014-Jul-27 12:06 315 26.7
2014-Jul-27 11:38 315 26.7
2014-Jul-27 11:36 315 26.7
2014-Jul-27 11:23 315 26.7
2014-Jul-27 11:06 315 26.7
2014-Jul-27 10:53 315 26.7
2014-Jul-27 10:36 315 26.7
2014-Jul-27 10:23 315 26.7
2014-Jul-27 10:06 315 26.7
2014-Jul-27 09:36 315 26.7
2014-Jul-27 09:06 315 26.7
2014-Jul-27 08:36 315 26.7
2014-Jul-27 08:06 315 26.7
2014-Jul-27 07:38 315 26.7
2014-Jul-27 07:36 315 26.7
2014-Jul-27 07:08 315 26.7
2014-Jul-27 07:06 315 26.7
2014-Jul-27 06:38 315 26.7
2014-Jul-27 06:36 315 26.7
2014-Jul-27 06:06 315 26.7
2014-Jul-27 05:36 315 26.7
2014-Jul-27 05:06 315 26.7
2014-Jul-27 04:53 315 26.7
2014-Jul-27 04:36 315 26.7
2014-Jul-27 04:08 315 26.7
2014-Jul-27 04:06 315 26.7
2014-Jul-27 03:53 315 26.7
2014-Jul-27 03:38 315 26.7
2014-Jul-27 03:36 315 26.7
2014-Jul-27 03:23 315 26.7
2014-Jul-27 03:08 315 26.7
2014-Jul-27 03:06 315 26.7
2014-Jul-27 02:36 315 26.1
2014-Jul-27 02:06 292 27.2
2014-Jul-27 01:36 233 30.6
2014-Jul-27 01:06 216 4 gusting 5 30.6
2014-Jul-27 00:36 165 1 gusting 2 31.1
2014-Jul-27 00:06 230 31.1
2014-Jul-26 23:38 202 31.1
2014-Jul-26 23:36 153 31.1
2014-Jul-26 23:06 153 30.6
2014-Jul-26 22:36 136 0 gusting 2 29.4
2014-Jul-26 22:23 232 29.4
2014-Jul-26 22:08 278 29.4
2014-Jul-26 22:06 137 29.4
2014-Jul-26 21:36 158 28.9
2014-Jul-26 21:23 137 28.9
2014-Jul-26 21:06 197 28.3
2014-Jul-26 20:36 205 28.3
2014-Jul-26 20:06 158 28.3
2014-Jul-26 19:36 207 28.3
2014-Jul-26 19:06 297 1 gusting 4 28.3
2014-Jul-26 18:36 225 28.3
2014-Jul-26 18:08 249 0 gusting 1 28.9
2014-Jul-26 18:06 282 28.9
2014-Jul-26 17:53 290 28.9
2014-Jul-26 17:36 313 28.9
2014-Jul-26 17:23 292 28.9
2014-Jul-26 17:06 272 1 gusting 2 28.9
2014-Jul-26 16:36 286 29.4
2014-Jul-26 16:06 279 1 gusting 4 29.4
2014-Jul-26 15:36 190 29.4
2014-Jul-26 15:06 135 29.4
2014-Jul-26 14:36 292 1 gusting 1 30.0
2014-Jul-26 14:23 315 30.0
2014-Jul-26 14:08 264 30.0
2014-Jul-26 14:06 270 30.0
2014-Jul-26 13:36 274 1 gusting 5 30.0
2014-Jul-26 13:23 227 2 gusting 5 30.0
2014-Jul-26 13:06 194 2 gusting 5 30.0
2014-Jul-26 12:36 290 30.0
2014-Jul-26 12:06 229 1 gusting 5 30.0
2014-Jul-26 11:36 280 4 gusting 4 30.0
2014-Jul-26 11:06 272 2 gusting 4 30.6
2014-Jul-26 10:53 271 1 gusting 2 30.6
2014-Jul-26 10:36 306 1 gusting 1 31.1
2014-Jul-26 10:06 289 2 gusting 4 31.1
2014-Jul-26 09:36 307 4 gusting 2 32.8
2014-Jul-26 09:06 226 4 gusting 5 34.4
2014-Jul-26 08:36 237 4 gusting 4 35.0
2014-Jul-26 08:06 245 1 gusting 4 35.6